Find Starlink 2380

NORAD ID: 47799 Int'l Des: 2021-018 Owner: SPXS Country: US Constellation: starlink operational
LEOCIRCULARSTARLINK_TYPE

リアルタイム位置

3D地球を読み込み中...

Starlink 2380について

説明を読み込み中...

次回通過

Passes for default location (London). Set your location on the main map for personalized predictions.

高度履歴

Loading altitude history...

軌道要素

1 47799U 21018N 26121.99497625 .00001758 00000-0 68396-4 0 9998
2 47799 53.1605 344.3281 0001577 93.7851 266.3331 15.31704164285029
Epoch: May 1, 2026 • Age: 13 hours

現在のステータス

高度 475.3 km
速度 7.63 km/s
衛星直下点 48.80°N, 10.93°W
打ち上げ日 Mar 11, 2021
運用期間 5.1 years
タイプ internet

技術仕様

分類 Payload
質量 260.00 kg
乾燥質量 248.00 kg
総質量 260.00 kg
長さ 0.20 m
直径 2.80 m
スパン 9.00 m
形状 Box + pan
製造者 SPXS
バスタイプ Starlink
フェーズステータス In Orbit
所有者/国 SPXS/US

Most Searched